CAPE
0 0 0 0 0 0 0 0 0 0 0 0 0 0 0 310 663 1084 1811 397 757 1496 1821 1082 385 508 956 1311 1275 902 674 583 396 284 178 147 24 0 124 390 737 302 120 197 304 188 52 51 9
0 0 0 0 0 0 0 0 0 0 0 0 0 0 0 167 788 1963 1221 553 1046 1725 1739 1222 339 361 690 1113 1013 863 814 825 581 466 311 118 5 0 67 393 767 440 203 20 47 51 22 15 0
0 0 0 0 0 0 0 0 0 0 0 0 0 0 0 23 1811 2146 1247 853 1248 1664 1591 1413 349 288 536 832 813 741 737 768 699 662 364 137 10 0 195 454 631 394 106 0 45 23 0 0 0
0 0 0 0 0 0 0 0 0 0 0 0 0 0 0 0 1491 2248 872 1094 1517 1635 1565 1325 374 55 185 459 692 622 672 717 698 627 325 152 9 95 327 395 580 443 141 75 144 19 0 0 0
0 0 0 0 0 0 0 0 0 0 0 0 0 0 0 320 1735 1871 1102 1325 1477 1487 1712 1178 459 73 67 157 378 419 584 630 677 541 236 119 11 283 334 297 255 366 218 94 75 0 0 0 0
0 0 0 0 0 0 0 0 0 0 0 0 0 0 0 0 1062 2197 1407 1425 1448 1397 1753 1159 696 163 87 97 98 98 105 119 179 184 151 47 55 257 265 240 253 181 90 25 24 0 0 0 0
0 0 0 0 0 0 0 0 0 0 0 0 0 0 0 0 1047 2285 1683 1742 1632 1454 1583 1059 455 427 259 124 92 45 4 26 39 33 23 6 64 170 163 210 280 289 48 0 0 0 0 0 0
0 0 0 0 0 0 0 0 0 0 0 0 0 0 0 31 1677 2244 2071 2029 1933 1633 1550 1136 565 171 92 188 149 58 24 0 0 0 0 11 82 112 96 100 220 239 90 0 0 0 0 0 0
0 0 0 0 0 0 0 0 0 0 0 0 0 0 0 599 1840 2211 2590 2386 2054 1613 1490 1222 862 301 62 79 230 104 81 33 18 11 6 17 0 41 152 25 147 122 58 14 0 0 0 0 11
0 0 0 0 0 0 0 0 0 0 0 0 0 2 1347 840 1331 2195 2474 2372 2137 1658 1616 1480 1332 735 331 211 317 101 130 81 57 38 59 0 6 42 58 156 323 235 113 12 4 0 4 0 0
0 0 0 0 0 0 0 0 0 0 0 0 0 20 1952 1602 1518 2080 2388 2187 2043 1724 1655 1574 1753 1278 749 536 540 244 267 210 208 196 196 106 186 192 130 228 268 280 121 35 0 0 0 0 0
0 0 0 0 0 0 0 0 0 0 0 0 0 0 0 2140 1748 2208 2438 2199 1993 1831 1827 1878 1973 1607 1083 768 808 627 584 491 457 533 614 449 467 352 143 64 28 56 34 6 6 0 0 28 46
0 0 0 0 0 0 0 0 0 0 0 0 0 0 0 0 2411 2493 2282 2033 1998 2116 2140 2294 2193 1994 1562 1094 1124 968 948 923 771 762 950 786 574 479 382 240 114 43 28 48 36 8 29 20 18
0 0 0 0 0 0 0 0 0 0 0 0 0 0 0 0 419 2665 2199 2181 2243 2279 2334 2436 2459 2417 2093 2007 1747 1448 1369 1259 1126 905 977 985 899 829 607 559 343 166 173 153 149 102 234 569 585
0 0 0 0 0 0 0 0 0 0 0 0 0 0 0 0 0 2687 2822 2662 2842 2832 2737 2597 2563 2561 2353 2528 2557 2246 1927 1692 1447 1215 1274 1196 1193 1152 1104 741 553 273 832 888 939 1082 1201 1343 1194
0 0 0 0 0 0 0 0 0 0 0 0 0 0 0 0 0 450 2133 2617 2917 3173 3220 3197 2631 2470 2410 2734 2661 2243 2045 1753 1625 1487 1503 1533 1431 1491 1476 960 789 491 1312 1258 1009 1130 1102 702 754
0 0 0 0 0 0 0 0 0 0 0 0 0 0 0 0 0 0 263 2390 2986 3414 3632 3558 3067 2593 2682 2882 2432 2326 2104 2077 1844 1691 1745 1729 1709 1576 1483 1327 1160 773 574 574 766 469 489 358 486
0 0 0 0 0 0 0 0 0 0 0 0 0 0 0 0 0 0 0 116 1877 3083 3601 3385 2913 3253 3091 2507 2268 2407 2329 2267 2092 1833 1844 1834 1683 1094 741 402 203 84 63 13 28 0 26 336 472
0 0 0 0 0 0 0 0 0 0 0 0 0 0 0 0 0 0 0 0 174 1600 2377 2650 2862 3078 2701 2166 2396 2287 2208 2097 2312 2153 1764 1021 635 331 115 0 0 0 0 6 25 117 88 435 403
0 0 0 0 0 0 0 0 0 0 0 0 0 0 0 0 0 0 0 0 12 793 1824 2277 2494 2627 2401 2678 2780 2516 2248 2142 2270 2131 1555 765 245 136 1 0 0 0 0 0 8 107 143 282 305
0 0 0 0 0 0 0 0 0 0 0 0 0 0 0 0 0 0 0 0 0 118 1204 1899 2316 2168 2407 2769 2757 2749 2519 2237 2224 1737 1370 986 493 23 3 0 0 0 0 0 201 250 257 349 441
0 0 0 0 0 0 0 0 0 0 0 0 0 0 0 0 0 0 0 0 0 8 714 1852 2165 2027 2192 2593 2624 2498 2217 1996 1887 1758 770 131 14 1 0 2 43 28 82 226 91 155 141 128 346
0 4 0 0 0 0 0 0 0 0 0 0 0 0 0 0 0 0 0 0 1 239 1372 1876 1814 1985 2151 2294 2282 2537 2000 1935 1922 1090 545 325 431 626 396 383 186 67 9 0 0 0 0 0 0
7 16 17 16 0 0 0 0 0 0 0 0 0 0 0 0 0 0 0 63 932 1278 1265 1530 1465 1931 2049 1858 1672 1845 1708 1657 1032 530 255 75 51 12 0 0 0 0 0 0 0 0 0 0 0
23 10 3 7 16 0 0 0 0 0 0 0 0 0 0 0 0 0 339 642 443 691 771 634 596 310 292 435 265 119 113 302 370 340 258 77 24 22 0 0 0 0 0 0 0 0 0 0 0
64 44 12 1 0 0 0 0 0 0 0 0 0 0 0 31 0 258 267 94 222 369 404 474 461 254 250 79 3 0 0 0 2 10 46 6 0 0 0 0 0 0 0 0 0 0 0 0 0
58 102 13 21 20 0 0 0 0 0 0 0 0 26 307 100 141 115 86 245 451 666 851 785 541 298 76 5 0 0 0 0 0 2 0 0 0 0 0 0 0 0 0 0 0 0 0 0 0
108 77 31 5 4 5 5 0 0 0 0 0 48 68 63 60 28 46 182 411 488 412 351 24 40 52 36 0 0 0 0 0 0 0 0 0 0 0 0 0 0 0 0 0 0 0 0 0 0
19 89 92 29 26 11 9 0 3 0 0 2 51 4 6 7 4 5 56 131 212 89 28 22 12 15 0 0 0 0 0 0 0 0 0 0 0 0 0 0 0 0 0 0 0 0 0 0 3
4 70 41 82 74 41 27 2 71 0 0 61 4 6 4 4 4 2 78 175 98 15 5 0 0 0 0 0 0 0 0 0 0 0 0 0 0 0 0 0 0 0 0 0 0 0 0 1 2
CIN
-0 -0 -0 -0 -0 -0 -0 -0 -0 -0 -0 -0 -0 -0 -0 -29 -4 -13 -162 -263 -273 -303 -329 -445 -548 -469 -360 -289 -257 -285 -285 -276 -292 -292 -311 -301 -411 -0 -283 -144 -44 -129 -205 -138 -75 -107 -172 -163 -249
-0 -0 -0 -0 -0 -0 -0 -0 -0 -0 -0 -0 -0 -0 -0 -52 -45 -111 -176 -310 -299 -308 -335 -374 -563 -521 -422 -313 -309 -325 -312 -268 -289 -293 -294 -322 -220 -0 -303 -143 -43 -95 -140 -261 -218 -194 -207 -155 -0
-0 -0 -0 -0 -0 -0 -0 -0 -0 -0 -0 -0 -0 -0 -0 -59 -57 -62 -181 -300 -286 -314 -312 -329 -538 -520 -433 -363 -326 -315 -321 -301 -286 -266 -303 -343 -208 -0 -244 -135 -77 -112 -195 -0 -209 -228 -0 -0 -0
-0 -0 -0 -0 -0 -0 -0 -0 -0 -0 -0 -0 -0 -0 -0 -0 -63 -70 -251 -247 -274 -269 -253 -368 -516 -560 -492 -406 -316 -311 -289 -277 -278 -282 -323 -351 -211 -310 -211 -162 -97 -105 -179 -205 -180 -239 -0 -0 -0
-0 -0 -0 -0 -0 -0 -0 -0 -0 -0 -0 -0 -0 -0 -0 -55 -90 -125 -228 -218 -224 -241 -212 -336 -478 -573 -532 -467 -377 -343 -302 -271 -241 -261 -337 -374 -191 -262 -211 -189 -171 -115 -141 -180 -181 -0 -0 -0 -0
-0 -0 -0 -0 -0 -0 -0 -0 -0 -0 -0 -0 -0 -0 -0 -0 -89 -96 -160 -158 -174 -208 -192 -311 -407 -515 -523 -477 -444 -422 -405 -405 -367 -344 -341 -397 -371 -253 -234 -230 -199 -188 -200 -212 -209 -0 -0 -0 -0
-0 -0 -0 -0 -0 -0 -0 -0 -0 -0 -0 -0 -0 -0 -0 -0 -66 -68 -96 -93 -134 -167 -179 -279 -379 -390 -424 -442 -453 -481 -399 -470 -443 -431 -423 -349 -322 -257 -251 -213 -177 -162 -220 -0 -0 -0 -0 -0 -0
-0 -0 -0 -0 -0 -0 -0 -0 -0 -0 -0 -0 -0 -0 -0 -28 -89 -77 -82 -84 -98 -145 -164 -221 -304 -378 -404 -385 -417 -442 -468 -20 -0 -0 -0 -395 -295 -264 -272 -269 -208 -184 -229 -9 -0 -0 -0 -0 -0
-0 -0 -0 -0 -0 -0 -0 -0 -0 -0 -0 -0 -0 -0 -0 -102 -100 -73 -65 -78 -96 -140 -161 -174 -221 -315 -346 -338 -331 -369 -366 -412 -443 -426 -121 -355 -0 -179 -214 -277 -221 -230 -264 -298 -0 -0 -0 -0 -300
-0 -0 -0 -0 -0 -0 -0 -0 -0 -0 -0 -0 -0 -14 -75 -110 -98 -58 -56 -76 -111 -139 -148 -123 -157 -212 -230 -238 -263 -299 -275 -315 -320 -310 -311 -0 -154 -215 -181 -136 -106 -143 -195 -254 -202 -0 -221 -0 -0
-0 -0 -0 -0 -0 -0 -0 -0 -0 -0 -0 -0 -0 -13 -41 -63 -81 -49 -39 -43 -87 -111 -123 -120 -115 -139 -150 -147 -189 -230 -201 -198 -182 -178 -190 -196 -129 -119 -125 -61 -64 -68 -162 -222 -0 -0 -0 -0 -0
-0 -0 -0 -0 -0 -0 -0 -0 -0 -0 -0 -0 -0 -0 -0 -18 -46 -23 -24 -31 -65 -106 -125 -133 -98 -114 -118 -113 -123 -122 -106 -105 -84 -42 -42 -40 -40 -56 -107 -116 -125 -109 -113 -215 -226 -0 -30 -172 -128
-0 -0 -0 -0 -0 -0 -0 -0 -0 -0 -0 -0 -0 -0 -0 -0 -2 -2 -3 -9 -49 -87 -120 -106 -86 -95 -100 -97 -77 -71 -34 -79 -38 -27 -25 -21 -27 -40 -51 -63 -74 -77 -76 -77 -128 -167 -122 -144 -139
-0 -0 -0 -0 -0 -0 -0 -0 -0 -0 -0 -0 -0 -0 -0 -0 -156 -1 -1 -3 -42 -63 -100 -92 -76 -78 -92 -65 -55 -56 -32 -25 -20 -12 -12 -19 -11 -3 -5 -18 -30 -52 -39 -41 -42 -48 -20 -5 -1
-0 -0 -0 -0 -0 -0 -0 -0 -0 -0 -0 -0 -0 -0 -0 -0 -0 -0 -1 -2 -25 -40 -64 -94 -81 -65 -88 -37 -19 -9 -5 -2 -9 -18 -25 -26 -22 -5 -6 -4 -7 -17 -1 -0 -8 -2 -0 -0 -0
-0 -0 -0 -0 -0 -0 -0 -0 -0 -0 -0 -0 -0 -0 -0 -0 -0 -136 -1 -1 -2 -3 -26 -39 -66 -89 -93 -37 -23 -30 -17 -8 -2 -1 -1 -13 -13 -1 -0 -0 -0 -1 -0 -0 -5 -1 -2 -8 -10
-0 -0 -0 -0 -0 -0 -0 -0 -0 -0 -0 -0 -0 -0 -0 -0 -0 -0 -97 -1 -1 -8 -1 -18 -43 -71 -68 -23 -48 -40 -15 -1 -1 -0 -1 -0 -0 -0 -0 -0 -0 -6 -7 -6 -9 -10 -13 -11 -19
-0 -0 -0 -0 -0 -0 -0 -0 -0 -0 -0 -0 -0 -0 -0 -0 -0 -0 -0 -213 -35 -14 -10 -25 -71 -30 -29 -46 -47 -25 -1 -0 -0 -1 -2 -0 -0 -26 -40 -50 -77 -71 -48 -2 -12 -2 -70 -21 -16
-0 -0 -0 -0 -0 -0 -0 -0 -0 -0 -0 -0 -0 -0 -0 -0 -0 -0 -0 -0 -198 -80 -72 -96 -90 -50 -63 -82 -50 -14 -6 -2 -0 -0 -7 -69 -103 -160 -214 -0 -0 -0 -0 -11 -11 -27 -24 -5 -27
-0 -0 -0 -0 -0 -0 -0 -0 -0 -0 -0 -0 -0 -0 -0 -0 -0 -0 -0 -0 -52 -130 -119 -136 -107 -81 -86 -44 -22 -2 -16 -1 -0 -0 -19 -118 -176 -186 -66 -0 -0 -0 -0 -0 -59 -23 -20 -31 -70
-0 -0 -0 -0 -0 -0 -0 -0 -0 -0 -0 -0 -0 -0 -0 -0 -0 -0 -0 -0 -0 -199 -126 -113 -88 -121 -78 -16 -13 -3 -1 -0 -0 -6 -39 -56 -108 -247 -272 -0 -0 -0 -0 -0 -14 -17 -4 -3 -2
-0 -0 -0 -0 -0 -0 -0 -0 -0 -0 -0 -0 -0 -0 -0 -0 -0 -0 -0 -0 -0 -131 -137 -85 -89 -116 -67 -19 -4 -4 -1 -5 -3 -1 -103 -238 -267 -51 -0 -221 -115 -117 -42 -11 -42 -9 -25 -69 -2
-0 -4 -0 -0 -0 -0 -0 -0 -0 -0 -0 -0 -0 -0 -0 -0 -0 -0 -0 -0 -24 -170 -110 -124 -137 -97 -47 -29 -1 -0 -1 -5 -1 -37 -116 -165 -127 -85 -87 -65 -83 -84 -121 -0 -0 -0 -0 -0 -0
-9 -6 -8 -4 -2 -0 -0 -0 -0 -0 -0 -0 -0 -0 -0 -0 -0 -0 -0 -80 -154 -157 -194 -160 -173 -86 -42 -37 -45 -26 -19 -23 -77 -129 -160 -210 -239 -197 -0 -0 -0 -0 -0 -0 -0 -0 -0 -0 -0
-10 -13 -13 -6 -5 -0 -0 -0 -0 -0 -0 -0 -0 -0 -0 -0 -0 -0 -194 -308 -360 -272 -260 -320 -330 -375 -359 -300 -332 -355 -310 -81 -14 -92 -125 -181 -216 -215 -0 -0 -0 -0 -0 -0 -0 -0 -0 -0 -0
-5 -5 -3 -0 -0 -0 -0 -0 -0 -0 -0 -0 -0 -0 -0 -254 -41 -222 -363 -514 -414 -320 -297 -304 -305 -348 -314 -382 -61 -0 -0 -0 -0 -63 -127 -204 -0 -0 -0 -0 -0 -0 -0 -0 -0 -0 -0 -0 -0
-3 -4 -36 -8 -9 -0 -0 -0 -0 -0 -0 -0 -0 -300 -169 -317 -334 -416 -457 -309 -261 -205 -163 -191 -233 -266 -358 -460 -0 -0 -0 -0 -0 -0 -0 -0 -0 -0 -0 -0 -0 -0 -0 -0 -0 -0 -0 -0 -0
-5 -16 -4 -42 -22 -7 -5 -0 -0 -0 -0 -0 -234 -245 -357 -385 -464 -426 -295 -237 -208 -204 -228 -335 -334 -346 -355 -0 -0 -0 -0 -0 -0 -0 -0 -0 -0 -0 -0 -0 -0 -0 -0 -0 -0 -0 -0 -0 -0
-23 -9 -5 -10 -15 -8 -4 -0 -10 -0 -0 -204 -228 -86 -0 -0 -0 -176 -341 -284 -252 -293 -317 -355 -399 -398 -26 -0 -0 -0 -0 -0 -0 -0 -0 -0 -0 -0 -0 -0 -0 -0 -0 -0 -0 -0 -0 -0 -1
-0 -5 -5 -10 -11 -8 -11 -5 -103 -0 -0 -77 -14 -0 -0 -0 -0 -0 -252 -222 -262 -298 -345 -19 -0 -0 -0 -0 -0 -0 -0 -0 -0 -0 -0 -0 -0 -0 -0 -0 -0 -0 -0 -0 -0 -0 -1 -1 -1
Wind_Speed
24 20 20 20 23 23 17 14 18 12 11 11 17 19 22 22 17 17 10 8 13 15 16 17 17 17 18 20 21 21 20 19 18 18 18 18 18 18 18 18 18 18 17 17 15 14 15 16 17
22 20 18 22 24 13 13 19 16 14 11 13 19 16 18 19 15 11 7 6 12 14 16 17 18 18 17 18 20 21 20 19 18 17 17 17 16 17 16 16 16 16 15 15 14 14 14 14 15
21 21 20 21 23 21 27 18 22 20 17 20 19 16 18 16 14 11 7 10 13 13 15 15 17 17 17 17 16 16 17 17 16 15 15 15 16 15 15 14 13 14 14 14 14 14 14 14 14
17 16 20 27 25 21 38 29 20 23 20 20 19 21 15 16 16 10 4 10 10 11 12 14 15 16 16 16 15 15 13 13 13 13 12 12 13 13 13 12 11 12 12 12 12 13 13 13 13
17 20 29 30 33 29 26 33 27 26 23 19 19 22 20 12 12 5 3 7 8 10 10 13 13 15 15 15 15 14 14 12 12 11 11 10 10 10 10 9 9 9 9 9 9 9 9 9 9
20 22 33 35 36 27 27 37 30 26 25 23 25 25 21 13 9 2 3 6 7 8 9 11 10 11 12 11 11 11 11 11 10 10 9 9 9 8 8 7 7 7 7 6 6 6 6 5 5
26 27 36 37 37 33 27 27 29 31 31 29 25 26 20 13 10 5 3 4 5 7 8 9 9 8 7 7 8 8 9 8 8 7 7 7 7 6 5 4 4 5 5 5 4 4 4 4 4
22 30 37 36 35 36 30 27 26 29 27 21 20 24 24 13 10 7 5 4 5 6 6 8 8 7 7 5 5 5 6 6 5 4 4 4 4 3 3 3 3 3 4 4 5 5 5 5 6
18 32 37 32 28 33 24 27 24 24 26 23 22 26 23 15 11 8 7 6 6 6 6 6 6 7 7 5 4 4 3 1 1 1 1 2 3 2 2 1 2 3 4 4 4 4 4 7 8
21 32 33 32 32 29 29 26 23 25 26 26 22 22 21 15 13 12 10 10 9 8 7 6 6 6 5 3 3 3 1 1 3 4 3 4 6 6 6 7 7 7 7 8 7 8 8 9 9
26 28 31 33 31 32 36 28 26 28 26 22 22 21 19 17 16 15 13 11 10 8 7 6 6 5 5 2 1 1 1 4 6 5 4 5 8 8 9 10 9 9 9 9 9 10 11 10 12
36 34 35 36 30 32 35 34 32 30 28 22 17 18 20 18 18 16 14 12 11 9 8 7 6 5 4 2 2 1 3 6 8 7 7 9 9 10 10 11 11 11 10 11 11 12 13 15 14
31 35 31 37 34 31 34 36 34 30 28 29 22 24 23 21 16 13 12 11 10 10 8 7 7 5 4 4 3 4 6 6 8 7 8 9 9 11 11 13 14 14 13 11 14 15 15 15 17
31 38 43 35 36 36 35 36 31 30 28 27 28 30 25 20 16 11 11 11 11 9 8 7 7 6 5 4 2 3 4 4 4 5 6 7 11 13 15 15 16 18 18 17 17 16 17 18 21
38 41 36 41 36 33 31 46 31 33 29 31 29 29 26 21 17 12 10 10 10 9 8 8 7 6 5 5 4 5 6 7 6 6 6 8 11 15 17 17 18 17 16 18 19 23 22 22 22
39 42 47 37 34 36 30 53 32 30 30 33 31 30 29 25 18 15 14 14 12 10 8 8 7 6 6 7 7 9 8 9 9 9 8 8 11 13 15 19 19 18 18 19 20 21 23 25 23
38 45 44 42 30 31 30 41 38 23 25 29 29 27 28 24 20 17 15 13 12 11 10 9 8 7 8 9 10 10 10 9 8 9 10 11 12 14 18 21 20 21 21 20 19 19 21 26 27
44 47 49 43 36 35 34 41 29 26 29 27 29 25 24 23 20 17 15 13 12 11 10 10 10 9 9 10 12 11 11 11 10 10 12 11 12 14 15 17 18 20 23 23 22 20 20 23 24
36 45 48 45 35 38 43 38 37 30 28 25 22 23 22 22 19 17 16 14 12 11 11 11 12 13 11 12 12 12 12 11 10 11 11 11 12 13 14 14 14 19 21 27 26 23 25 26 22
56 49 45 40 34 34 38 45 38 35 29 27 25 24 21 20 20 18 16 14 12 12 11 11 11 11 11 11 11 12 10 10 9 9 10 11 13 15 14 13 14 13 17 21 25 22 24 22 17
54 55 45 41 36 37 36 42 41 37 36 29 28 26 24 21 21 19 17 15 13 12 11 10 10 9 10 10 9 10 8 9 10 11 12 13 13 13 12 10 9 9 6 4 8 17 16 21 17
58 49 46 40 36 45 37 47 43 40 40 39 39 34 28 23 21 19 18 16 14 13 12 10 9 8 8 9 8 9 10 12 11 13 12 9 8 8 9 10 10 9 8 7 12 13 13 13 20
58 41 46 42 44 39 35 42 39 35 41 38 33 31 28 24 20 18 17 17 16 13 10 8 7 6 7 8 10 10 12 12 11 10 9 8 9 10 12 11 11 10 11 11 12 13 16 17 21
41 43 45 45 47 50 44 42 44 37 38 34 30 29 27 25 21 19 16 13 11 11 9 7 6 6 6 7 10 12 10 10 8 8 7 7 9 11 11 11 11 11 11 13 15 16 18 21 24
37 39 43 48 52 52 46 42 42 30 33 32 31 28 25 23 22 18 13 12 11 9 7 7 5 4 3 4 5 8 11 13 15 9 6 6 8 11 12 11 12 13 13 15 17 19 21 23 27
45 43 45 52 53 53 36 49 39 27 26 27 24 22 20 20 17 15 13 10 8 7 6 5 4 2 1 3 4 5 8 13 25 16 10 11 11 11 12 13 14 15 15 17 20 21 25 27 28
39 47 39 37 40 49 42 38 32 27 24 23 21 19 18 16 14 12 9 8 7 7 7 6 5 3 2 2 5 7 9 10 20 16 10 11 11 12 13 14 16 17 18 20 22 23 26 29 30
34 33 46 37 42 53 41 46 34 33 22 19 18 18 16 13 11 10 8 8 9 9 8 5 2 2 5 6 8 10 12 10 4 11 12 13 13 13 13 14 17 19 22 24 26 26 26 28 29
31 33 44 38 33 40 41 44 26 29 28 20 16 14 13 13 12 10 9 9 8 6 4 3 1 2 4 7 9 10 10 7 6 9 9 9 11 12 14 16 18 21 23 25 26 26 25 28 28
35 41 30 35 34 35 32 32 22 22 23 19 17 14 12 12 12 11 10 9 8 7 6 4 3 4 7 9 9 9 10 8 8 8 10 11 12 14 15 17 20 23 25 26 26 27 28 29 31
Wind_Direction
286 294 295 290 280 278 275 281 288 304 303 305 303 293 281 291 294 300 11 41 98 109 114 117 113 104 100 104 106 104 101 100 97 97 97 99 100 98 97 96 87 83 81 78 74 71 70 76 81
282 285 287 282 274 244 259 274 285 287 306 305 304 302 297 287 302 327 23 51 109 110 115 119 119 114 106 106 109 106 106 103 101 98 96 96 96 97 97 94 86 82 77 74 74 74 72 75 79
282 277 279 279 270 221 272 278 278 277 294 293 298 301 300 298 311 313 351 108 115 113 117 118 121 117 110 110 108 106 105 105 102 98 96 97 98 97 95 91 84 83 79 79 81 80 81 83 85
284 284 282 270 269 272 262 270 285 280 283 288 294 290 302 305 308 318 103 119 115 114 116 121 122 121 117 114 111 106 101 101 101 99 94 93 93 95 94 89 82 83 81 81 82 86 87 88 91
282 284 271 270 269 272 274 267 277 276 280 282 286 282 292 313 318 346 122 127 127 122 117 126 124 122 121 119 116 108 103 98 100 99 97 94 94 92 87 77 69 68 69 68 69 71 73 79 83
277 280 269 268 271 273 271 263 271 272 276 280 282 280 286 300 304 308 148 142 133 130 124 129 127 124 122 119 113 107 102 101 100 101 99 100 100 95 88 78 69 58 53 56 61 57 53 54 60
270 270 268 271 272 273 273 270 270 268 272 274 276 276 283 287 286 267 196 168 150 140 134 135 133 127 121 119 113 109 106 101 97 98 98 101 103 99 87 70 47 36 30 29 27 25 23 14 6
274 274 271 269 271 270 274 273 270 268 271 276 275 275 274 276 271 255 226 209 172 157 149 145 140 139 136 127 118 114 112 109 102 93 87 92 93 82 79 67 39 24 10 359 348 340 331 327 323
273 270 268 271 272 268 281 270 270 274 268 273 270 270 277 282 264 248 229 208 190 183 173 163 159 150 144 133 128 116 108 92 33 9 13 8 348 346 353 19 26 4 352 343 333 322 315 311 309
258 267 270 272 272 274 269 272 272 271 268 267 270 275 280 266 257 240 226 212 200 193 189 178 171 165 154 139 132 129 107 321 300 303 302 308 314 314 315 317 318 321 325 322 316 309 303 300 301
269 250 273 270 269 269 265 271 272 270 268 268 267 277 277 267 257 245 233 222 215 206 197 186 173 172 176 190 153 199 292 299 294 292 293 303 312 312 308 312 308 310 310 314 311 306 301 297 298
269 270 267 269 271 270 266 268 267 268 266 283 271 280 282 271 258 247 231 218 204 200 199 203 191 187 198 225 228 231 274 287 293 293 292 301 305 307 306 309 310 307 307 304 304 303 302 300 299
258 269 270 267 267 269 268 265 267 266 267 267 271 275 276 275 262 245 229 218 206 197 198 192 185 188 204 254 274 285 288 288 289 289 283 294 300 303 304 306 308 309 310 309 303 301 301 301 298
276 269 265 268 266 266 266 266 264 265 263 265 266 267 271 272 261 239 227 212 203 205 210 207 206 209 205 223 273 300 302 314 296 291 283 280 298 303 304 303 304 303 303 304 300 302 302 300 296
270 269 270 262 261 263 269 262 253 262 263 262 262 261 263 266 265 236 217 212 216 223 225 216 211 213 219 235 268 295 304 303 293 285 280 280 291 297 298 301 304 306 310 304 300 296 298 301 301
263 265 263 261 259 257 259 253 265 260 255 257 257 256 259 261 261 247 238 242 239 238 225 224 232 237 244 258 278 289 300 298 295 294 288 283 289 294 300 301 303 308 311 311 306 300 300 297 301
260 259 257 260 255 256 244 263 261 269 253 253 253 251 253 255 255 253 241 241 239 240 243 239 240 249 253 271 283 288 292 296 298 297 295 295 294 298 299 304 307 309 310 313 306 308 308 301 302
256 258 259 257 249 250 252 257 264 265 258 258 252 248 245 246 248 249 242 241 245 246 249 254 260 259 261 274 283 288 291 295 301 302 305 309 308 311 310 312 316 318 315 315 305 313 313 309 308
268 263 259 258 257 251 253 256 255 261 259 253 251 247 241 235 242 246 244 245 244 245 250 259 265 266 264 270 274 282 285 292 300 307 308 311 308 309 312 319 325 325 333 304 299 301 302 292 314
253 260 259 259 254 254 255 254 254 252 255 250 250 251 245 234 232 240 242 244 242 242 250 259 266 266 263 270 278 288 289 286 293 304 308 310 312 311 311 307 308 312 332 325 296 306 290 301 329
250 250 255 257 254 255 258 254 250 248 249 247 251 255 252 243 233 238 240 244 240 240 244 253 261 263 264 278 281 289 299 297 294 297 304 308 311 321 327 323 327 339 6 38 352 325 336 317 337
248 247 250 253 251 250 248 254 248 245 245 247 250 251 248 247 241 239 242 245 244 249 256 256 257 264 265 269 275 275 279 284 286 295 304 311 333 352 12 10 4 12 4 6 341 345 353 348 327
248 249 245 248 249 253 245 251 251 241 242 243 243 243 243 242 241 239 240 247 255 254 248 253 249 257 275 277 288 282 285 292 297 298 302 306 318 327 330 340 346 350 349 351 355 353 340 339 330
249 247 245 244 247 246 243 244 247 242 241 242 240 240 240 239 239 242 246 245 249 253 250 244 249 271 284 293 300 302 303 299 280 280 286 306 315 325 333 344 348 345 344 345 340 338 337 333 331
242 232 234 237 238 241 240 243 243 244 243 242 237 237 237 238 239 236 229 235 239 241 237 230 232 276 313 323 323 323 324 325 286 276 279 304 319 318 328 333 333 335 343 342 339 336 334 333 329
230 227 232 234 231 234 240 239 243 247 250 244 233 231 228 234 231 227 231 226 214 213 207 195 195 207 11 47 39 12 348 345 307 282 297 311 318 322 320 326 327 333 337 339 335 332 329 328 327
226 228 232 251 237 238 233 242 243 248 239 241 226 218 222 227 224 223 211 200 185 172 166 153 145 133 96 27 345 354 340 344 303 295 316 318 322 322 318 324 330 333 336 337 335 332 330 328 326
232 226 228 240 235 232 231 233 242 223 226 223 219 215 216 217 208 193 182 161 143 134 137 145 213 291 328 346 344 346 347 7 288 301 316 316 311 322 335 339 334 331 330 329 329 330 331 330 330
227 220 229 234 242 230 227 231 244 223 220 216 210 207 199 201 190 179 161 151 143 136 138 140 104 14 2 20 10 6 25 14 343 332 336 346 336 336 334 333 336 333 331 331 330 331 333 331 331
226 183 188 224 230 233 239 231 238 224 213 211 205 196 191 182 168 156 146 138 134 127 117 106 82 51 34 40 36 29 26 15 342 349 340 336 338 337 338 338 335 333 331 331 332 332 332 332 329